Time,TemperatureF,DewpointF,PressureIn,WindDirection,WindDirectionDegrees,WindSpeedMPH,WindSpeedGustMPH,Humidity,HourlyPrecipIn,Conditions,Clouds,dailyrainin,SoftwareType,DateUTC
2015-01-30 00:00:00,55.3,43.3,29.90,NW,323,0.0,0.0,64,0.00,CLR,,0.00,WeatherDisplay:10.37,2015-01-30 08:00:00,
2015-01-30 00:05:00,55.3,43.7,29.89,NW,323,0.0,0.0,65,0.00,CLR,,0.00,WeatherDisplay:10.37,2015-01-30 08:05:00,
2015-01-30 00:10:00,55.1,43.5,29.89,NW,323,0.0,0.0,65,0.00,CLR,,0.00,WeatherDisplay:10.37,2015-01-30 08:10:00,
2015-01-30 00:15:00,55.0,43.4,29.89,NW,323,0.0,0.0,65,0.00,CLR,,0.00,WeatherDisplay:10.37,2015-01-30 08:15:00,
2015-01-30 00:20:00,55.0,43.4,29.89,NW,323,0.0,0.0,65,0.00,CLR,,0.00,WeatherDisplay:10.37,2015-01-30 08:20:00,
2015-01-30 00:25:00,55.1,43.1,29.89,NW,323,0.0,0.0,64,0.00,CLR,,0.00,WeatherDisplay:10.37,2015-01-30 08:25:00,
2015-01-30 00:30:00,55.3,43.3,29.88,NW,323,0.0,0.0,64,0.00,CLR,,0.00,WeatherDisplay:10.37,2015-01-30 08:30:00,
2015-01-30 00:35:00,55.3,43.3,29.88,NW,323,0.0,0.0,64,0.00,CLR,,0.00,WeatherDisplay:10.37,2015-01-30 08:35:00,
2015-01-30 00:40:00,55.4,43.0,29.88,NW,323,0.0,0.0,63,0.00,CLR,,0.00,WeatherDisplay:10.37,2015-01-30 08:40:00,
2015-01-30 00:45:00,55.6,43.2,29.88,NW,323,0.0,0.0,63,0.00,CLR,,0.00,WeatherDisplay:10.37,2015-01-30 08:45:00,
2015-01-30 00:50:00,55.7,43.3,29.88,NW,323,0.0,0.0,63,0.00,CLR,,0.00,WeatherDisplay:10.37,2015-01-30 08:50:00,
2015-01-30 00:55:00,55.7,43.3,29.88,NW,323,0.0,0.0,63,0.00,CLR,,0.00,WeatherDisplay:10.37,2015-01-30 08:55:00,
2015-01-30 01:00:00,55.7,43.7,29.88,NW,323,0.0,0.0,64,0.00,CLR,,0.00,WeatherDisplay:10.37,2015-01-30 09:00:00,
2015-01-30 01:05:00,55.6,44.0,29.88,NW,323,0.0,0.0,65,0.00,CLR,,0.00,WeatherDisplay:10.37,2015-01-30 09:05:00,
2015-01-30 01:10:00,55.4,44.2,29.88,NW,323,0.0,0.0,66,0.00,CLR,,0.00,WeatherDisplay:10.37,2015-01-30 09:10:00,
2015-01-30 01:15:00,55.3,44.5,29.88,NW,323,0.0,0.0,67,0.00,CLR,,0.00,WeatherDisplay:10.37,2015-01-30 09:15:00,
2015-01-30 01:20:00,55.1,44.3,29.88,NW,323,0.0,0.0,67,0.00,CLR,,0.00,WeatherDisplay:10.37,2015-01-30 09:20:00,
2015-01-30 01:25:00,55.0,44.6,29.88,NW,323,0.0,0.0,68,0.00,CLR,,0.00,WeatherDisplay:10.37,2015-01-30 09:25:00,
2015-01-30 01:30:00,54.8,44.4,29.88,NW,323,0.0,0.0,68,0.00,CLR,,0.00,WeatherDisplay:10.37,2015-01-30 09:30:00,
2015-01-30 01:35:00,54.7,44.3,29.88,NW,323,0.0,0.0,68,0.00,CLR,,0.00,WeatherDisplay:10.37,2015-01-30 09:35:00,
2015-01-30 01:40:00,54.7,44.3,29.87,NW,323,0.0,0.0,68,0.00,CLR,,0.00,WeatherDisplay:10.37,2015-01-30 09:40:00,
2015-01-30 01:45:00,54.7,44.3,29.87,NW,323,0.0,0.0,68,0.00,CLR,,0.00,WeatherDisplay:10.37,2015-01-30 09:45:00,
2015-01-30 01:50:00,54.7,44.3,29.87,NW,323,0.0,0.0,68,0.00,CLR,,0.00,WeatherDisplay:10.37,2015-01-30 09:50:00,
2015-01-30 01:55:00,54.7,44.7,29.86,NW,323,0.0,0.0,69,0.00,CLR,,0.00,WeatherDisplay:10.37,2015-01-30 09:55:00,
2015-01-30 02:00:00,54.5,44.5,29.86,NW,323,0.0,0.0,69,0.00,CLR,,0.00,WeatherDisplay:10.37,2015-01-30 10:00:00,
2015-01-30 02:05:00,54.4,44.4,29.87,NW,323,0.0,1.2,69,0.00,CLR,,0.00,WeatherDisplay:10.37,2015-01-30 10:05:00,
2015-01-30 02:10:00,54.4,44.4,29.86,NW,323,0.0,0.0,69,0.00,CLR,,0.00,WeatherDisplay:10.37,2015-01-30 10:10:00,
2015-01-30 02:15:00,54.4,44.4,29.86,NW,323,0.0,0.0,69,0.00,CLR,,0.00,WeatherDisplay:10.37,2015-01-30 10:15:00,
2015-01-30 02:20:00,54.2,44.2,29.86,NW,323,0.0,0.0,69,0.00,CLR,,0.00,WeatherDisplay:10.37,2015-01-30 10:20:00,
2015-01-30 02:25:00,54.1,44.5,29.86,NW,323,0.0,0.0,70,0.00,CLR,,0.00,WeatherDisplay:10.37,2015-01-30 10:25:00,
2015-01-30 02:30:00,53.9,44.7,29.86,NW,323,0.0,0.0,71,0.00,CLR,,0.00,WeatherDisplay:10.37,2015-01-30 10:30:00,
2015-01-30 02:35:00,53.8,45.0,29.86,NW,323,0.0,0.0,72,0.00,CLR,,0.00,WeatherDisplay:10.37,2015-01-30 10:35:00,
2015-01-30 02:40:00,53.5,44.7,29.86,NW,323,0.0,0.0,72,0.00,CLR,,0.00,WeatherDisplay:10.37,2015-01-30 10:40:00,
2015-01-30 02:45:00,53.3,44.5,29.86,NW,323,0.0,0.0,72,0.00,CLR,,0.00,WeatherDisplay:10.37,2015-01-30 10:45:00,
2015-01-30 02:50:00,53.3,44.5,29.85,NW,323,0.0,0.0,72,0.00,CLR,,0.00,WeatherDisplay:10.37,2015-01-30 10:50:00,
2015-01-30 02:55:00,53.2,44.4,29.85,NW,323,0.0,0.0,72,0.00,CLR,,0.00,WeatherDisplay:10.37,2015-01-30 10:55:00,
2015-01-30 03:00:00,53.2,44.8,29.85,NW,323,0.0,0.0,73,0.00,CLR,,0.00,WeatherDisplay:10.37,2015-01-30 11:00:00,
2015-01-30 03:05:00,53.2,44.8,29.85,NW,323,0.0,0.0,73,0.00,CLR,,0.00,WeatherDisplay:10.37,2015-01-30 11:05:00,
2015-01-30 03:10:00,53.2,44.8,29.85,NW,323,0.0,0.0,73,0.00,CLR,,0.00,WeatherDisplay:10.37,2015-01-30 11:10:00,
2015-01-30 03:15:00,53.2,44.8,29.85,NW,323,0.0,0.0,73,0.00,CLR,,0.00,WeatherDisplay:10.37,2015-01-30 11:15:00,
2015-01-30 03:20:00,53.3,44.9,29.85,NW,323,0.0,0.0,73,0.00,CLR,,0.00,WeatherDisplay:10.37,2015-01-30 11:20:00,
2015-01-30 03:25:00,53.5,45.1,29.85,NW,323,0.0,1.2,73,0.00,CLR,,0.00,WeatherDisplay:10.37,2015-01-30 11:25:00,
2015-01-30 03:30:00,53.6,45.2,29.85,NW,323,0.0,0.0,73,0.00,CLR,,0.00,WeatherDisplay:10.37,2015-01-30 11:30:00,
2015-01-30 03:35:00,53.8,45.0,29.85,NW,323,0.0,0.0,72,0.00,CLR,,0.00,WeatherDisplay:10.37,2015-01-30 11:35:00,
2015-01-30 03:40:00,53.8,45.0,29.85,NW,323,0.0,0.0,72,0.00,CLR,,0.00,WeatherDisplay:10.37,2015-01-30 11:40:00,
2015-01-30 03:45:00,53.8,45.0,29.84,NW,323,0.0,0.0,72,0.00,CLR,,0.00,WeatherDisplay:10.37,2015-01-30 11:45:00,
2015-01-30 03:50:00,53.8,45.0,29.84,NW,323,0.0,1.2,72,0.00,CLR,,0.00,WeatherDisplay:10.37,2015-01-30 11:50:00,
2015-01-30 03:55:00,53.9,45.4,29.84,NW,323,0.0,0.0,73,0.00,CLR,,0.00,WeatherDisplay:10.37,2015-01-30 11:55:00,
2015-01-30 04:00:00,53.9,45.4,29.84,NW,323,0.0,0.0,73,0.00,CLR,,0.00,WeatherDisplay:10.37,2015-01-30 12:00:00,